QPF
0.00 0.00 0.00 0.00 0.00 0.04 0.09 0.05 0.05 0.05 0.01 0.02 0.14 0.31 0.27 0.15 0.14 0.10 0.08 0.07 0.10 0.11 0.11 0.07 0.04 0.01 0.02 0.00 0.01 0.01 0.01 0.04 0.02 0.00 0.00 0.00 0.00 0.00 0.00 0.00 0.01 0.10 0.11
0.00 0.00 0.00 0.00 0.01 0.07 0.07 0.06 0.14 0.07 0.05 0.37 0.50 0.47 0.38 0.41 0.38 0.28 0.21 0.08 0.03 0.01 0.03 0.01 0.01 0.02 0.03 0.04 0.05 0.04 0.02 0.04 0.02 0.00 0.00 0.00 0.00 0.00 0.00 0.00 0.01 0.04 0.08
0.00 0.00 0.00 0.00 0.02 0.07 0.07 0.08 0.16 0.26 0.36 0.50 0.29 0.22 0.14 0.11 0.16 0.16 0.14 0.02 0.01 0.01 0.02 0.03 0.02 0.03 0.02 0.05 0.06 0.04 0.01 0.00 0.00 0.01 0.00 0.01 0.01 0.00 0.00 0.00 0.00 0.00 0.01
0.00 0.00 0.00 0.01 0.01 0.04 0.06 0.06 0.19 0.40 0.43 0.25 0.11 0.06 0.09 0.11 0.12 0.13 0.08 0.00 0.00 0.01 0.03 0.03 0.04 0.02 0.02 0.01 0.00 0.00 0.00 0.00 0.00 0.00 0.00 0.00 0.01 0.01 0.02 0.05 0.02 0.03 0.04
0.00 0.00 0.00 0.01 0.04 0.07 0.06 0.05 0.16 0.12 0.08 0.12 0.05 0.03 0.09 0.07 0.05 0.11 0.06 0.03 0.00 0.00 0.01 0.01 0.00 0.00 0.00 0.00 0.00 0.00 0.00 0.00 0.00 0.00 0.00 0.00 0.00 0.02 0.08 0.13 0.08 0.05 0.07
0.00 0.00 0.00 0.00 0.01 0.07 0.08 0.11 0.13 0.13 0.06 0.01 0.02 0.04 0.09 0.08 0.06 0.03 0.00 0.00 0.00 0.00 0.00 0.00 0.00 0.00 0.00 0.00 0.00 0.00 0.00 0.00 0.00 0.00 0.00 0.00 0.00 0.02 0.05 0.09 0.04 0.03 0.07
0.00 0.00 0.00 0.00 0.02 0.02 0.03 0.10 0.05 0.03 0.03 0.00 0.00 0.00 0.01 0.02 0.00 0.00 0.00 0.00 0.00 0.00 0.00 0.00 0.00 0.00 0.00 0.00 0.00 0.00 0.00 0.00 0.00 0.00 0.00 0.00 0.00 0.01 0.02 0.05 0.04 0.03 0.05
0.00 0.00 0.00 0.00 0.00 0.04 0.03 0.09 0.14 0.05 0.04 0.00 0.00 0.00 0.00 0.00 0.00 0.00 0.00 0.00 0.00 0.00 0.00 0.00 0.00 0.00 0.00 0.00 0.00 0.00 0.00 0.00 0.00 0.00 0.00 0.00 0.01 0.01 0.06 0.10 0.08 0.02 0.03
0.00 0.00 0.00 0.00 0.00 0.01 0.04 0.03 0.10 0.16 0.13 0.02 0.00 0.00 0.00 0.00 0.00 0.00 0.00 0.00 0.00 0.00 0.00 0.00 0.00 0.00 0.00 0.00 0.00 0.00 0.00 0.00 0.00 0.00 0.00 0.00 0.00 0.01 0.05 0.08 0.01 0.00 0.00
0.00 0.00 0.00 0.00 0.00 0.00 0.01 0.02 0.04 0.08 0.10 0.04 0.00 0.00 0.01 0.00 0.00 0.00 0.00 0.00 0.00 0.00 0.00 0.00 0.00 0.00 0.00 0.00 0.00 0.00 0.00 0.00 0.00 0.00 0.00 0.00 0.00 0.00 0.00 0.00 0.00 0.00 0.05
0.01 0.00 0.00 0.00 0.00 0.00 0.01 0.00 0.01 0.05 0.10 0.09 0.10 0.06 0.02 0.04 0.01 0.00 0.00 0.00 0.00 0.00 0.00 0.00 0.00 0.00 0.00 0.00 0.00 0.00 0.00 0.00 0.00 0.00 0.00 0.00 0.00 0.00 0.00 0.00 0.01 0.03 0.06
0.01 0.00 0.00 0.00 0.00 0.00 0.01 0.01 0.01 0.01 0.03 0.04 0.09 0.09 0.11 0.09 0.03 0.00 0.00 0.00 0.00 0.00 0.00 0.00 0.00 0.00 0.00 0.00 0.00 0.00 0.00 0.00 0.00 0.00 0.00 0.00 0.00 0.01 0.01 0.01 0.04 0.05 0.07
0.01 0.01 0.00 0.00 0.00 0.00 0.00 0.01 0.01 0.01 0.00 0.01 0.03 0.07 0.14 0.17 0.07 0.01 0.00 0.00 0.00 0.00 0.00 0.00 0.00 0.00 0.00 0.00 0.00 0.00 0.00 0.00 0.00 0.00 0.00 0.01 0.02 0.02 0.02 0.04 0.07 0.03 0.01
0.00 0.00 0.00 0.00 0.00 0.00 0.00 0.01 0.01 0.01 0.00 0.00 0.01 0.02 0.05 0.11 0.06 0.01 0.00 0.00 0.00 0.00 0.00 0.00 0.00 0.00 0.00 0.00 0.00 0.00 0.00 0.00 0.00 0.00 0.00 0.02 0.04 0.04 0.04 0.04 0.08 0.03 0.06
0.00 0.00 0.00 0.00 0.00 0.00 0.00 0.00 0.02 0.02 0.01 0.00 0.00 0.00 0.01 0.02 0.04 0.03 0.01 0.00 0.00 0.00 0.00 0.00 0.00 0.00 0.00 0.00 0.00 0.00 0.00 0.00 0.00 0.00 0.00 0.02 0.03 0.06 0.05 0.01 0.02 0.02 0.07
0.00 0.00 0.00 0.01 0.01 0.00 0.00 0.00 0.00 0.00 0.01 0.02 0.02 0.01 0.00 0.00 0.01 0.02 0.01 0.00 0.00 0.00 0.00 0.00 0.00 0.00 0.00 0.00 0.00 0.00 0.00 0.00 0.00 0.00 0.00 0.02 0.03 0.09 0.07 0.03 0.05 0.21 0.17
0.00 0.00 0.00 0.01 0.01 0.00 0.00 0.00 0.00 0.00 0.00 0.00 0.01 0.02 0.02 0.01 0.00 0.02 0.01 0.00 0.00 0.00 0.00 0.00 0.00 0.00 0.00 0.00 0.00 0.00 0.00 0.00 0.00 0.00 0.00 0.01 0.01 0.05 0.09 0.04 0.08 0.09 0.13
0.00 0.00 0.00 0.00 0.00 0.00 0.00 0.00 0.00 0.00 0.00 0.00 0.00 0.00 0.01 0.01 0.01 0.01 0.01 0.00 0.00 0.00 0.00 0.00 0.00 0.00 0.00 0.00 0.00 0.00 0.00 0.00 0.00 0.00 0.00 0.01 0.02 0.05 0.11 0.02 0.00 0.01 0.08
0.00 0.00 0.00 0.00 0.00 0.00 0.00 0.00 0.00 0.00 0.00 0.00 0.00 0.00 0.00 0.00 0.00 0.00 0.00 0.00 0.00 0.00 0.00 0.00 0.00 0.00 0.00 0.00 0.00 0.00 0.00 0.00 0.00 0.00 0.00 0.01 0.02 0.05 0.09 0.07 0.11 0.15 0.22
0.00 0.00 0.00 0.00 0.00 0.00 0.00 0.00 0.00 0.00 0.00 0.00 0.00 0.00 0.00 0.00 0.00 0.00 0.00 0.00 0.00 0.00 0.00 0.00 0.00 0.00 0.00 0.00 0.00 0.00 0.00 0.00 0.00 0.00 0.00 0.01 0.03 0.11 0.12 0.14 0.16 0.16 0.19
0.00 0.00 0.00 0.00 0.00 0.00 0.00 0.01 0.01 0.01 0.01 0.00 0.00 0.00 0.00 0.00 0.00 0.00 0.00 0.00 0.00 0.00 0.00 0.00 0.00 0.00 0.00 0.00 0.00 0.00 0.00 0.00 0.00 0.00 0.01 0.02 0.07 0.08 0.06 0.06 0.10 0.12 0.12
0.00 0.00 0.00 0.00 0.00 0.00 0.00 0.00 0.01 0.00 0.00 0.01 0.00 0.00 0.00 0.00 0.00 0.00 0.00 0.00 0.00 0.00 0.00 0.00 0.00 0.00 0.00 0.00 0.00 0.00 0.00 0.00 0.00 0.00 0.02 0.05 0.10 0.03 0.04 0.11 0.15 0.15 0.07
0.00 0.00 0.00 0.00 0.00 0.00 0.00 0.00 0.01 0.01 0.00 0.00 0.00 0.00 0.00 0.00 0.00 0.00 0.00 0.00 0.00 0.00 0.00 0.00 0.00 0.00 0.00 0.00 0.00 0.00 0.00 0.00 0.01 0.03 0.05 0.09 0.08 0.05 0.03 0.09 0.07 0.10 0.06
0.00 0.00 0.01 0.00 0.00 0.00 0.00 0.00 0.00 0.00 0.00 0.01 0.01 0.01 0.00 0.00 0.00 0.00 0.00 0.00 0.00 0.00 0.00 0.00 0.00 0.00 0.00 0.00 0.00 0.00 0.00 0.00 0.02 0.04 0.08 0.12 0.18 0.27 0.13 0.09 0.05 0.04 0.02
0.00 0.00 0.00 0.00 0.00 0.00 0.01 0.00 0.00 0.01 0.01 0.01 0.02 0.01 0.00 0.00 0.00 0.00 0.00 0.00 0.00 0.00 0.00 0.00 0.00 0.00 0.00 0.00 0.00 0.00 0.00 0.01 0.04 0.06 0.13 0.19 0.23 0.16 0.08 0.07 0.07 0.01 0.00
0.00 0.00 0.00 0.00 0.00 0.00 0.01 0.01 0.02 0.02 0.01 0.02 0.09 0.10 0.06 0.03 0.04 0.04 0.03 0.01 0.00 0.00 0.00 0.00 0.00 0.00 0.00 0.00 0.00 0.00 0.02 0.07 0.11 0.22 0.21 0.14 0.18 0.07 0.03 0.08 0.07 0.01 0.00
MSLP
1001.50 1000.78 1000.27 999.95 998.96 998.32 997.97 997.62 997.46 997.78 997.59 996.66 996.34 997.13 998.91 999.24 999.08 999.58 1001.22 1001.60 1002.46 1003.08 1004.00 1004.76 1004.91 1005.54 1005.94 1006.57 1006.98 1007.52 1007.91 1008.16 1008.56 1008.05 1007.88 1007.60 1007.72 1007.92 1008.03 1008.03 1008.22 1008.27 1008.06
1000.81 1000.19 999.91 999.52 998.77 998.18 997.27 996.67 996.37 996.66 996.63 995.74 997.54 997.31 996.92 998.61 999.95 999.37 999.13 999.71 1001.36 1002.54 1003.10 1003.81 1004.44 1005.03 1005.83 1006.25 1006.73 1007.27 1007.45 1007.48 1008.02 1007.98 1007.47 1007.39 1007.59 1007.63 1007.84 1008.00 1008.08 1007.73 1007.73
1000.34 999.94 999.56 999.40 998.72 998.14 997.02 996.25 995.89 995.91 995.65 996.71 998.25 998.70 1000.19 999.41 1000.87 1000.72 999.38 999.27 1000.28 1001.86 1002.14 1003.08 1003.79 1004.37 1005.35 1005.94 1006.37 1006.65 1006.80 1006.94 1007.10 1007.30 1007.36 1007.30 1007.32 1007.24 1007.42 1007.49 1007.59 1007.65 1007.51
999.79 999.35 999.08 998.84 998.36 997.99 996.97 996.03 995.60 995.15 996.09 997.10 998.72 999.69 1000.79 1002.04 1000.63 1002.29 1000.81 999.64 1000.67 1001.77 1001.69 1002.75 1003.47 1004.06 1004.71 1005.45 1005.73 1006.15 1006.33 1006.59 1006.77 1007.01 1007.13 1007.04 1006.92 1006.66 1006.76 1007.27 1007.46 1007.20 1007.25
1000.64 1000.16 998.62 998.16 997.79 997.53 996.99 996.15 995.07 994.86 995.10 996.54 997.65 999.05 999.68 1000.15 1001.78 1001.29 1000.19 1000.41 1000.70 1001.12 1001.40 1002.39 1003.40 1003.51 1003.93 1004.76 1005.23 1005.72 1006.22 1006.64 1006.90 1007.03 1007.03 1006.79 1006.70 1006.49 1006.61 1006.99 1007.23 1007.04 1007.01
1000.95 1000.05 999.23 997.89 997.09 997.17 997.14 996.52 996.13 995.23 994.15 994.92 995.75 996.58 999.59 999.13 998.63 999.40 999.07 999.01 1000.15 1000.67 1001.77 1002.57 1002.63 1003.44 1003.84 1004.50 1004.97 1005.38 1005.90 1006.38 1006.88 1007.09 1007.09 1006.93 1006.71 1006.55 1006.38 1006.74 1006.94 1007.04 1007.27
1000.94 999.97 998.94 998.02 996.99 996.45 996.99 996.46 994.98 993.42 993.52 994.18 994.89 995.85 997.25 997.52 997.23 998.43 998.15 998.96 1000.37 1001.41 1001.90 1002.28 1002.38 1003.10 1003.39 1004.22 1004.82 1005.24 1005.73 1006.06 1006.35 1006.66 1006.87 1006.69 1006.51 1006.19 1006.37 1006.51 1006.80 1006.83 1006.81
1000.51 999.59 998.83 997.65 996.62 996.03 996.58 996.91 996.94 996.43 994.32 993.54 994.13 994.32 995.53 996.73 997.32 998.30 998.77 999.32 1000.22 1000.81 1001.33 1002.02 1002.32 1002.91 1003.20 1003.94 1004.75 1005.35 1005.47 1005.60 1005.78 1006.08 1006.34 1006.15 1005.98 1005.81 1005.90 1006.12 1006.36 1006.45 1006.40
999.49 998.89 998.43 997.40 996.27 995.90 995.85 996.29 996.75 996.53 995.46 994.12 994.22 994.65 995.42 996.92 998.00 997.91 998.13 999.06 999.87 1000.56 1001.48 1001.63 1002.04 1002.50 1003.43 1004.30 1005.05 1005.41 1005.46 1005.32 1005.05 1005.01 1005.05 1005.31 1005.50 1005.55 1005.64 1006.09 1006.05 1006.32 1006.24
998.62 998.25 997.74 996.99 996.31 995.36 995.44 995.79 995.86 996.56 994.73 994.58 994.72 994.84 995.54 996.76 998.13 997.44 997.32 998.78 1000.04 1000.62 1001.46 1001.22 1001.82 1002.67 1003.62 1004.44 1005.10 1005.32 1005.40 1005.19 1005.00 1004.89 1004.88 1004.86 1004.95 1004.90 1004.97 1005.22 1005.14 1005.42 1005.76
998.49 997.43 996.95 996.58 996.26 995.90 995.30 995.10 995.43 995.46 996.89 996.84 995.30 995.02 995.83 996.36 997.97 998.16 997.78 997.61 999.47 1000.41 1000.74 1001.71 1002.39 1002.96 1003.68 1004.48 1004.88 1005.11 1005.12 1005.05 1004.95 1004.89 1004.70 1004.63 1004.38 1004.19 1004.19 1004.55 1004.74 1004.92 1005.25
997.91 997.39 996.83 995.97 995.77 995.84 995.23 995.05 995.26 995.83 996.20 996.78 996.81 995.73 996.02 996.31 996.75 998.05 997.79 997.76 999.35 1000.58 1001.19 1001.92 1002.52 1002.95 1003.61 1004.10 1004.74 1004.57 1004.80 1004.95 1004.71 1004.63 1004.40 1004.17 1004.07 1003.79 1003.59 1003.92 1004.38 1004.49 1004.41
996.93 996.74 996.52 996.08 995.76 995.61 995.45 995.30 995.12 995.67 996.30 996.91 997.75 996.20 996.16 997.00 997.53 997.93 998.07 998.84 1000.09 1000.70 1000.95 1002.41 1003.00 1003.61 1004.01 1004.36 1004.19 1004.35 1004.95 1004.71 1004.36 1004.14 1003.82 1003.54 1003.49 1003.37 1003.45 1003.73 1003.90 1004.01 1004.20
995.58 995.67 995.76 995.70 995.16 995.15 995.32 995.14 994.87 995.15 995.57 996.43 996.98 996.16 996.00 997.19 997.83 997.96 998.41 999.16 1000.16 1000.56 1001.06 1001.60 1002.03 1002.62 1003.09 1003.45 1003.79 1003.96 1003.88 1003.55 1003.40 1003.24 1003.14 1002.92 1002.93 1003.21 1003.42 1003.37 1003.68 1003.92 1004.19
994.32 994.69 995.05 995.15 995.07 994.97 994.91 994.90 994.61 994.85 994.82 995.22 995.85 995.81 995.52 996.55 997.47 998.55 998.65 999.47 999.67 1000.25 1000.88 1001.47 1001.96 1002.37 1002.73 1002.95 1002.94 1002.69 1002.57 1002.59 1002.56 1002.53 1002.66 1002.79 1002.92 1002.90 1002.99 1003.03 1003.47 1003.91 1004.17
993.18 994.03 994.58 994.83 995.02 995.02 994.87 994.72 994.59 994.66 995.05 994.72 995.05 995.18 995.28 996.06 997.52 998.52 999.20 998.80 999.20 1000.15 1000.99 1001.34 1001.74 1001.93 1002.06 1002.03 1001.88 1001.60 1001.50 1001.53 1001.59 1001.73 1001.95 1002.26 1002.52 1002.67 1002.66 1002.85 1003.13 1003.38 1003.71
993.65 994.17 994.55 994.82 994.79 994.82 994.56 994.30 994.59 995.25 995.09 995.00 994.87 995.22 995.50 995.85 996.96 998.54 999.06 998.52 999.57 1000.22 1000.49 1000.90 1000.92 1001.04 1000.97 1000.99 1000.97 1000.77 1000.82 1000.67 1000.52 1000.93 1001.30 1001.75 1002.04 1002.24 1002.49 1002.55 1002.69 1003.04 1003.38
994.61 994.77 994.76 994.81 994.59 994.43 994.27 994.22 994.66 994.77 995.20 995.39 995.50 995.19 995.93 996.60 997.21 998.04 998.64 999.35 1000.30 999.96 999.72 999.94 1000.17 1000.40 1000.62 1000.60 1000.59 1000.36 1000.07 1000.06 1000.06 1000.27 1000.69 1001.25 1001.73 1001.85 1002.03 1002.17 1002.39 1002.70 1003.01
994.91 994.86 994.81 994.72 994.58 994.46 994.46 994.58 994.90 995.24 995.35 995.48 995.32 996.13 996.50 997.40 997.74 998.32 998.83 997.99 998.67 998.93 999.07 999.36 999.59 999.98 1000.14 1000.21 1000.13 1000.03 999.74 999.52 999.44 999.75 1000.24 1000.92 1001.34 1001.57 1001.76 1001.77 1002.00 1002.33 1002.52
994.99 995.05 994.84 994.76 994.73 994.77 994.89 995.05 995.26 995.48 995.85 996.20 996.13 996.21 996.87 997.28 997.54 998.13 998.62 997.94 997.58 997.76 998.21 998.75 999.04 999.51 999.63 999.59 999.33 999.18 999.06 998.95 999.06 999.48 1000.06 1000.61 1000.95 1001.13 1001.28 1001.33 1001.54 1002.11 1002.50
994.99 994.95 995.00 994.86 994.75 994.92 995.15 995.44 995.61 995.79 995.92 996.21 996.51 996.31 996.54 996.66 996.58 997.23 997.46 997.60 997.46 997.42 997.54 997.83 998.09 998.52 998.53 998.63 998.48 998.14 998.02 998.04 998.31 998.90 999.69 1000.11 1000.27 1000.51 1000.64 1000.74 1001.01 1001.56 1001.88
995.21 994.95 994.82 994.58 994.85 994.91 995.05 995.31 995.60 995.82 995.96 996.28 996.46 996.42 996.33 996.26 995.87 995.69 996.14 996.53 996.78 997.03 997.16 997.41 997.61 997.70 997.41 997.17 997.12 997.18 996.96 997.14 997.77 998.55 999.17 999.44 999.61 999.92 1000.05 1000.32 1000.82 1001.44 1002.11
995.88 995.17 994.70 994.76 994.73 994.89 995.17 995.27 995.45 995.61 995.76 995.89 995.93 995.84 996.02 995.98 996.22 995.43 995.54 995.54 995.77 996.20 996.58 996.94 997.21 997.05 996.91 996.42 996.11 996.12 996.17 996.37 997.19 997.82 998.24 998.65 998.98 999.40 999.57 1000.08 1000.83 1001.48 1001.78
997.29 996.13 995.39 995.07 994.89 995.04 995.05 995.11 995.13 995.25 995.24 995.40 995.49 995.35 995.58 995.62 995.26 994.99 994.94 995.16 995.07 995.25 995.53 995.76 995.96 995.91 995.80 995.75 995.50 995.59 995.78 996.13 996.59 997.05 997.53 998.00 998.29 998.85 999.42 1000.00 1000.53 1001.41 1001.85
999.12 998.33 997.55 996.73 995.90 995.38 995.08 994.85 994.66 994.34 994.47 994.66 994.69 994.78 994.70 994.40 994.33 994.34 994.39 994.52 994.19 994.17 994.25 994.34 994.57 994.80 994.94 994.84 994.64 994.87 995.32 995.86 996.31 996.56 996.91 997.28 997.66 998.17 998.88 999.74 1000.47 1001.17 1001.99
1000.70 1000.05 999.37 998.64 997.79 996.95 996.20 995.57 994.62 993.79 993.32 993.28 993.30 993.32 993.33 993.41 993.55 993.58 993.53 993.46 993.49 993.42 993.32 993.46 993.62 993.71 993.78 993.96 994.13 994.38 994.82 995.37 995.75 996.16 996.69 997.14 997.50 997.96 998.61 999.37 1000.28 1000.98 1001.59
Thickness
5599 5608 5616 5624 5638 5650 5659 5671 5681 5687 5696 5717 5727 5725 5711 5705 5709 5706 5694 5699 5698 5698 5696 5693 5698 5699 5696 5693 5693 5692 5689 5689 5683 5694 5699 5702 5700 5697 5694 5691 5687 5687 5688
5584 5590 5599 5605 5620 5631 5644 5660 5673 5677 5691 5705 5695 5702 5712 5698 5682 5666 5684 5686 5691 5691 5689 5690 5692 5690 5687 5686 5687 5683 5685 5687 5683 5684 5693 5693 5693 5694 5690 5685 5682 5684 5684
5570 5573 5582 5588 5602 5614 5632 5649 5661 5667 5682 5677 5674 5670 5661 5664 5659 5645 5652 5678 5688 5689 5688 5684 5683 5684 5680 5679 5678 5680 5682 5685 5685 5684 5685 5689 5689 5689 5686 5682 5680 5676 5677
5561 5566 5573 5581 5592 5602 5620 5636 5648 5662 5661 5656 5647 5639 5633 5629 5651 5639 5647 5676 5680 5679 5681 5677 5675 5676 5673 5674 5676 5676 5678 5679 5680 5678 5680 5682 5683 5686 5684 5674 5671 5671 5670
5535 5546 5565 5576 5585 5596 5609 5621 5637 5645 5651 5647 5643 5639 5629 5632 5629 5637 5656 5666 5671 5671 5671 5670 5666 5668 5671 5672 5672 5670 5669 5669 5670 5670 5673 5677 5676 5677 5675 5669 5665 5665 5665
5519 5532 5547 5567 5580 5586 5592 5602 5607 5626 5644 5646 5642 5644 5621 5639 5639 5640 5660 5666 5665 5663 5659 5657 5660 5660 5663 5664 5665 5666 5665 5663 5662 5662 5664 5666 5668 5670 5671 5665 5661 5658 5651
5501 5514 5532 5549 5569 5580 5578 5588 5602 5592 5622 5640 5641 5638 5628 5637 5645 5650 5658 5660 5655 5651 5652 5649 5652 5654 5657 5658 5656 5657 5658 5659 5660 5662 5660 5663 5666 5667 5665 5662 5657 5654 5652
5484 5500 5516 5535 5554 5571 5564 5570 5575 5577 5600 5633 5635 5643 5641 5640 5644 5645 5647 5651 5649 5649 5646 5645 5644 5646 5649 5649 5650 5651 5655 5658 5659 5659 5659 5662 5665 5666 5665 5661 5657 5654 5652
5481 5486 5502 5522 5542 5557 5560 5567 5572 5577 5590 5616 5624 5627 5633 5630 5626 5638 5644 5642 5642 5640 5638 5640 5639 5640 5636 5637 5639 5641 5645 5651 5661 5664 5664 5660 5660 5660 5660 5657 5654 5649 5647
5477 5480 5488 5509 5526 5547 5554 5560 5571 5569 5584 5597 5612 5621 5625 5624 5619 5636 5643 5638 5631 5631 5631 5633 5633 5633 5631 5628 5631 5634 5637 5643 5652 5656 5659 5661 5658 5661 5659 5659 5659 5651 5648
5467 5476 5483 5493 5508 5524 5544 5557 5562 5571 5565 5571 5594 5608 5611 5617 5612 5618 5631 5640 5630 5625 5627 5625 5625 5623 5621 5620 5621 5629 5634 5639 5646 5649 5653 5655 5659 5662 5663 5659 5657 5653 5648
5458 5463 5470 5483 5493 5507 5529 5545 5551 5557 5562 5562 5574 5591 5598 5608 5615 5613 5624 5630 5622 5616 5619 5620 5617 5616 5615 5614 5616 5627 5626 5631 5640 5644 5648 5651 5654 5658 5661 5659 5655 5653 5654
5456 5455 5458 5470 5480 5493 5511 5531 5543 5546 5545 5546 5552 5580 5588 5593 5597 5603 5612 5612 5607 5612 5614 5603 5604 5604 5606 5609 5614 5618 5618 5629 5636 5641 5646 5650 5653 5656 5656 5654 5653 5653 5650
5458 5455 5453 5460 5474 5483 5498 5519 5536 5541 5548 5551 5551 5572 5584 5584 5586 5595 5602 5603 5600 5604 5607 5608 5610 5610 5610 5612 5614 5617 5624 5632 5638 5642 5646 5652 5653 5651 5649 5651 5649 5646 5642
5462 5455 5451 5455 5463 5472 5488 5507 5525 5534 5547 5555 5561 5570 5583 5580 5579 5574 5589 5592 5599 5602 5601 5601 5603 5604 5607 5611 5616 5623 5628 5633 5638 5642 5644 5645 5646 5647 5647 5648 5645 5641 5636
5471 5457 5452 5453 5457 5465 5480 5499 5513 5525 5534 5548 5557 5570 5582 5573 5568 5560 5567 5585 5591 5588 5590 5593 5595 5599 5605 5611 5617 5624 5630 5634 5638 5643 5644 5644 5643 5642 5644 5644 5641 5637 5633
5476 5462 5457 5456 5463 5469 5483 5499 5510 5510 5521 5534 5548 5555 5563 5573 5562 5556 5567 5578 5575 5577 5586 5589 5595 5600 5607 5612 5617 5623 5627 5633 5640 5642 5643 5642 5642 5640 5637 5640 5639 5634 5629
5478 5470 5466 5463 5470 5475 5482 5494 5502 5515 5521 5530 5531 5546 5550 5551 5552 5553 5559 5563 5565 5573 5585 5588 5590 5595 5600 5607 5613 5620 5627 5631 5637 5641 5640 5639 5637 5637 5636 5637 5636 5634 5629
5485 5480 5477 5476 5477 5480 5484 5491 5498 5504 5513 5518 5531 5527 5531 5535 5542 5544 5550 5573 5574 5577 5580 5581 5586 5589 5595 5601 5608 5615 5622 5629 5636 5638 5637 5633 5634 5632 5631 5634 5633 5629 5629
5495 5485 5482 5480 5480 5482 5482 5485 5490 5495 5498 5503 5512 5523 5521 5530 5540 5544 5548 5561 5571 5576 5577 5577 5582 5585 5590 5598 5607 5614 5620 5626 5630 5632 5630 5628 5629 5629 5629 5631 5629 5626 5624
5503 5494 5485 5483 5483 5480 5477 5477 5480 5484 5488 5489 5494 5505 5502 5523 5536 5539 5546 5552 5561 5568 5573 5577 5581 5584 5591 5596 5604 5614 5620 5625 5628 5629 5624 5625 5626 5626 5628 5629 5630 5628 5623
5509 5501 5494 5492 5486 5484 5483 5478 5478 5480 5481 5480 5483 5491 5492 5512 5533 5545 5548 5553 5557 5561 5568 5572 5577 5581 5592 5600 5607 5612 5620 5624 5625 5622 5621 5622 5624 5625 5626 5626 5624 5618 5615
5510 5508 5505 5498 5496 5492 5487 5484 5482 5482 5482 5482 5483 5491 5496 5506 5520 5539 5546 5554 5558 5561 5565 5568 5571 5579 5588 5599 5609 5612 5618 5623 5622 5620 5619 5620 5622 5623 5623 5620 5615 5610 5614
5502 5509 5510 5508 5505 5500 5498 5494 5493 5487 5488 5487 5490 5495 5498 5506 5523 5536 5545 5549 5556 5561 5565 5570 5575 5581 5589 5596 5605 5611 5617 5619 5617 5618 5618 5618 5621 5617 5617 5614 5613 5609 5611
5495 5495 5497 5499 5503 5508 5511 5509 5512 5512 5505 5505 5505 5508 5515 5525 5533 5540 5544 5548 5556 5560 5566 5573 5578 5582 5587 5593 5603 5607 5606 5605 5610 5614 5616 5616 5617 5617 5618 5615 5613 5610 5606
5489 5489 5489 5493 5496 5499 5504 5508 5520 5527 5528 5526 5527 5528 5531 5535 5539 5543 5547 5551 5554 5559 5566 5571 5576 5583 5589 5593 5597 5599 5598 5599 5603 5604 5608 5610 5612 5615 5615 5613 5610 5608 5607